Location: *
(47.2969°N, 10.2930°E)
Time: 07:10:26
(UTC+00:00)

MOS 1-B Rocket - Pass Details

Date: 09 April 2020
Orbit: 891 x 1605 km, 99.1° (Epoch: 24 May)

Event Time Altitude Azimuth Distance (km) Brightness Sun altitude
Rises 23:31:50 0° 12° (NNE) 3,694 8.0 -34.6°
Reaches altitude 10° 23:34:10 10° 11° (N) 2,808 7.2 -34.6°
Enters shadow 23:39:43 65° 328° (NNW) 1,215 4.5 -34.5°
